sat.trackr.live / text

‹ back to catalog

STARLINK-35075

NORAD 65702 · 2025-212AC

PAYLOAD ACTIVE UNKNOWN

§ Identity

Operator
Country
US
Launch date
2025-09-21
Launch site
AFETR
Launch vehicle
Mass (kg)
RCS (m²)

Purposes: comms

External: N2YO · Heavens-Above · Gunter

§ Orbital elements

Epoch: 2026-05-24T20:01:23.200320Z

Period
94.11 min
Inclination
53.1623°
Eccentricity
0.0001184
Mean motion
15.30204978 rev/d
Perigee alt
474.4 km
Apogee alt
476.0 km
Semi-major
6,853.3 km
B*
6.7476e-4
RAAN
351.8410°
Arg perigee
87.0236°
Mean anomaly
273.0901°
Rev number
3,890

§ Raw data

STARLINK-350751 65702U 25212AC  26144.83429630  .00019681  00000+0  67476-3 0  99912 65702  53.1623 351.8410 0001184  87.0236 273.0901 15.30204978 38905

JSON: /api/v1/satellites/65702 · /tle

For live sub-satellite position, see the globe view (requires WebGL).

§ Visibility from observer

Set your observer location to see the next 7 days of passes ≥ 10°. The values pass through the URL so the page stays shareable.

No JS? Fill the form by hand. The geolocation button needs JavaScript.